Location: Praha
(50.0830°N, 14.4670°E)
Time: 00:11:28
(UTC+02:00)

ISS - Pass Details

Date: 27 October 2020
Orbit: 417 x 420 km, 51.6° (Epoch: 23 October)

Event Time Altitude Azimuth Distance (km) Brightness Sun altitude
Exits shadow 05:54:41 - 253° (WSW) 1,558 -1.4 -8.5°
Reaches altitude 10° 05:54:50 10° 253° (WSW) 1,495 -1.5 -8.5°
Maximum altitude 05:58:12 89° 173° (S) 423 -3.8 -8.0°
Drops below altitude 10° 06:01:34 10° 75° (ENE) 1,499 0.2 -7.4°
Sets 06:03:40 0° 75° (ENE) 2,364 1.3 -7.1°
